AirNav   Air Wisconsin pilot careers
 
 1517 users online  

T58 Ironhead Airport
Sanger, Texas, USA

GOING TO SANGER?


FAA INFORMATION EFFECTIVE 11 OCTOBER 2018

Location

FAA Identifier: T58
Lat/Long: 33-19-54.4170N / 097-13-49.0580W
33-19.906950N / 097-13.817633W
33.3317825 / -97.2302939
(estimated)
Elevation: 715 ft. / 218 m (estimated)
Variation: 07E (1985)
From city: 3 miles SW of SANGER, TX
Time zone: UTC -5 (UTC -6 during Standard Time)
Zip code: 76266

Airport Operations

Airport use: Open to the public
Activation date: 12/1985
Control tower: no
ARTCC: FORT WORTH CENTER
FSS: FORT WORTH FLIGHT SERVICE STATION
NOTAMs facility: FTW (NOTAM-D service available)
Attendance: UNATNDD
Wind indicator: yes
Segmented circle: no

Airport Communications

CTAF: 122.9
WX ASOS at DTO (8 nm S): 119.325 (940-383-8457)
WX AWOS-3 at LUD (18 nm W): 118.225 (940-627-2365)
WX AWOS-3 at GLE (19 nm N): 118.375 (940-612-3549)

Nearby radio navigation aids

VOR radial/distance  VOR name  Freq  Var
FUZr348/26.7RANGER VORTAC115.7006E
TTTr335/29.4MAVERICK VOR/DME113.1006E
CVEr322/31.2COWBOY VOR/DME116.2006E
UKWr106/32.0BOWIE VORTAC117.1506E

 
NDB name  Hdg/Dist  Freq  Var  ID
PINCK326/3.425704EDT -.. -
MELISA274/32.442103EVLY ...- .-.. -.--

Airport Services

Parking: tiedowns

Runway Information

Runway 18/36

Dimensions: 2500 x 200 ft. / 762 x 61 m
Surface: turf, in good condition
RY SOFT WHEN WET.
Runway edge markings: 18/36 THR AND EDGES MARKED WITH WHITE TIRES.
RUNWAY 18  RUNWAY 36
Traffic pattern: leftleft
Obstructions: 5 ft. fence, 64 ft. from runway, 64 ft. left of centerline, 12:1 slope to clear32 ft. tree, 360 ft. from runway, 135 ft. left of centerline, 12:1 slope to clear

Airport Ownership and Management from official FAA records

Ownership: Privately-owned
Owner: BEN E. HUSTON AND THOMAS W. HUSTON
5808 MICHAEL RD
SANGER, TX 76266
Phone 940-458-7348
Manager: BEN E. HUSTON AND THOMAS W. HUSTON
5808 MICHAEL ROAD
SANGER, TX 76266
Phone 940-458-7348
OR 940-458-7988.

Airport Operational Statistics

Aircraft based on the field: 17
Single engine airplanes: 17
    
Aircraft operations: avg 80/week *
67% local general aviation
33% transient general aviation
* for 12-month period ending 31 December 2015

Additional Remarks

NORTH 700 FT RY 18/36 SLOPES DOWNWARD 25 FT IN ELEV.
WILDLIFE ON AND IN VICINITY OF AIRPORT.
FOR FLD COND CALL AMGR 940-458-7348.
ARPT CLSD TO HELICOPTER TRAINING.
FOR CD CTC REGIONAL APCH AT 972-615-2799.

Instrument Procedures

There are no published instrument procedures at T58.

Some nearby airports with instrument procedures:

KDTO - Denton Enterprise Airport (8 nm S)
KLUD - Decatur Municipal Airport (18 nm W)
KGLE - Gainesville Municipal Airport (19 nm N)
KAFW - Fort Worth Alliance Airport (21 nm S)
4T2 - Kenneth Copeland Airport (25 nm SW)
 
Loc | Ops | Rwys | IFR | FBO | Links
Com | Nav | Svcs | Stats | Notes


 
Area around T58 (Ironhead Airport)
 
Road maps at: MapQuest Bing Google
 
Aerial photo
No photo
 
Sectional chart

 
Airport distance calculator
Flying to Ironhead Airport? Find the distance to fly.

From to T58

Sunrise and sunset
Times for 18-Oct-2018
 Local
(UTC-5)
 Zulu
(UTC)
Morning civil twilight07:1212:12
Sunrise07:3712:37
Sunset18:5123:51
Evening civil twilight19:1600:16

Current date and time
Zulu (UTC)  18-Oct-2018 18:26:56
Local (UTC-5)  18-Oct-2018 13:26:56
 
METAR
KDTO 
8nm S 
181753Z 07010KT 10SM OVC050 17/11 A3038 RMK AO2 SLP284 60000 T01720106 10178 20128 58009
KLUD 
18nm W 
118.22 940-927-2365
181815Z AUTO 07008G15KT 10SM OVC047 17/10 A3038 RMK AO2 T01670103
KGLE 
19nm N 
181815Z AUTO 08007KT 10SM SCT070 BKN080 17/10 A3041 RMK AO2 T01680099
TAF
KAFW 
22nm S 
181732Z 1818/1918 06007KT P6SM VCSH OVC050 FM190300 03008KT P6SM -RA OVC030 FM190900 04006KT 5SM -RA BR OVC015
NOTAMs
Click for the latest NOTAMs
NOTAMs are issued by the DoD/FAA and will open in a separate window not controlled by AirNav.

 

 
 

Would you like to see your business listed on this page?

 If your business provides an interesting product or service to pilots, flight crews, aircraft, or users of the Ironhead Airport, you should consider listing it here.  To start the listing process, click on the button below
 
Add a business
 

Other Pages about Ironhead Airport

Update a link
 
Copyright © AirNav, LLC. All rights reserved. Privacy Policy  Contact